1499140801.04,55127,15.81,74014.3,-0.11,-21.73,-27.03,0,*65
1499140802.27,55128,15.81,74022.3,-0.11,-21.67,-27.03,0,*6F
1499140803.55,55129,15.81,74022.3,-0.09,-21.67,-26.93,0,*5F
1499140804.79,55130,15.81,74022.8,-0.09,-21.73,-26.93,0,*52
1499140806.04,55131,15.81,74018.0,-0.11,-21.67,-26.93,0,*6F
1499140807.27,55132,15.81,74020.8,-0.11,-21.53,-26.87,0,*6E
1499140808.53,55133,15.81,74018.5,-0.11,-21.53,-26.71,0,*66
1499140809.75,55134,15.81,74020.0,-0.11,-21.57,-26.87,0,*6C
1499140810.99,55135,15.81,74022.3,-0.09,-21.57,-26.87,0,*54
1499140812.25,55136,15.81,74014.0,-0.11,-21.53,-26.77,0,*65
1499140813.47,55137,15.81,74020.8,-0.11,-21.57,-26.87,0,*6F
1499140814.74,55138,15.81,74022.8,-0.09,-21.57,-26.93,0,*5C
1499140815.97,55139,15.81,74036.0,-0.11,-21.53,-26.87,0,*65
1499140817.19,55140,15.81,74026.0,-0.09,-21.43,-26.87,0,*53
1499140818.41,55141,15.81,74018.0,-0.09,-21.43,-26.87,0,*52
1499140819.66,55142,15.81,74016.5,-0.09,-21.43,-26.77,0,*5E
1499140820.9,55143,15.81,74024.5,-0.09,-21.39,-26.71,0,*54
1499140822.14,55144,15.81,74028.0,-0.09,-21.43,-26.71,0,*5E
1499140823.36,55145,15.81,74022.0,-0.11,-21.39,-26.71,0,*6B
1499140824.61,55146,15.81,74028.0,-0.09,-21.39,-26.71,0,*51
1499140825.85,55147,15.81,74028.3,-0.09,-21.39,-26.71,0,*50
1499140827.07,55148,15.81,74024.8,-0.09,-21.39,-26.61,0,*5E
1499140828.31,55149,15.81,74016.5,-0.07,-21.23,-26.55,0,*5D
1499140829.56,55150,15.81,73996.5,-0.07,-21.23,-26.55,0,*55
1499140830.78,55151,15.81,73986.5,-0.07,-21.23,-26.65,0,*57
1499140832.02,55152,15.81,73976.0,-0.07,-21.23,-26.55,0,*57
1499140833.24,55153,15.81,73982.8,-0.05,-21.17,-26.49,0,*5E
1499140834.46,55154,15.81,74004.0,-0.05,-21.13,-26.61,0,*57
1499140835.68,55155,15.81,73998.3,-0.07,-21.23,-26.65,0,*53
1499140836.9,55156,15.81,74008.3,-0.05,-21.13,-26.49,0,*5F
1499140838.11,55157,15.81,74012.5,-0.07,-21.13,-26.55,0,*51
1499140839.33,55158,15.81,74006.8,-0.05,-21.17,-26.49,0,*55
1499140840.55,55159,15.81,74008.3,-0.07,-21.23,-26.65,0,*5F
1499140841.77,55160,15.81,74012.3,-0.07,-21.33,-26.65,0,*54
1499140843.01,55161,15.81,74018.5,-0.05,-21.33,-26.65,0,*57
1499140844.26,55162,15.81,74016.5,-0.07,-21.33,-26.71,0,*53
1499140845.5,55163,15.81,74022.3,-0.05,-21.27,-26.61,0,*54
1499140846.72,55164,15.81,74022.3,-0.05,-21.17,-26.61,0,*50
1499140847.94,55165,15.81,73984.3,-0.05,-21.13,-26.61,0,*55
1499140849.16,55166,15.81,73980.8,-0.05,-21.13,-26.49,0,*5C
1499140850.37,55167,15.81,73984.8,-0.05,-21.13,-26.49,0,*5D
1499140851.59,55168,15.81,74000.0,-0.05,-21.17,-26.49,0,*56
1499140852.8,55169,15.81,74002.8,-0.05,-21.13,-26.49,0,*53
1499140854.02,55170,15.81,74018.3,-0.05,-21.17,-26.49,0,*5F
1499140855.24,55171,15.81,74024.5,-0.05,-21.13,-26.45,0,*56
1499140856.45,55172,15.81,74016.3,-0.05,-21.13,-26.49,0,*59
1499140857.7,55173,15.81,74018.3,-0.05,-20.99,-26.45,0,*57
1499140858.94,55174,15.81,74016.8,-0.05,-20.99,-26.49,0,*5C
1499140860.13,55175,15.81,74022.8,-0.03,-21.13,-26.49,0,*58
1499140861.34,55176,15.81,74028.5,-0.05,-21.13,-26.45,0,*51
1499140862.56,55177,15.81,74030.0,-0.05,-21.09,-26.45,0,*5B
1499140863.74,55178,15.81,74024.5,-0.03,-21.09,-26.49,0,*5E
1499140864.99,55179,15.81,74026.3,-0.03,-20.99,-26.33,0,*5A
1499140866.24,55180,15.81,74028.5,-0.03,-20.99,-26.33,0,*5C
1499140867.46,55181,15.81,74020.5,-0.03,-20.93,-26.33,0,*57
1499140868.68,55182,15.81,74020.8,-0.03,-21.09,-26.33,0,*56
1499140869.92,55183,15.81,74016.0,-0.03,-20.99,-26.33,0,*5F
1499140871.14,55184,15.81,74016.5,-0.03,-20.99,-26.45,0,*59
1499140872.39,55185,15.81,74014.3,-0.01,-20.89,-26.29,0,*51
1499140873.58,55186,15.81,74022.5,-0.03,-20.93,-26.45,0,*51
1499140874.77,55187,15.81,74018.3,-0.03,-20.93,-26.45,0,*50
1499140876.02,55188,15.81,74014.8,-0.03,-20.83,-26.29,0,*54
1499140877.29,55189,15.81,74012.3,-0.01,-20.79,-26.29,0,*52
1499140878.54,55190,15.81,74008.0,-0.03,-20.83,-26.29,0,*5D
1499140879.75,55191,15.81,74008.8,-0.03,-20.83,-26.45,0,*56
1499140881.0,55192,15.81,74016.3,-0.03,-20.83,-26.33,0,*54
1499140882.22,55193,15.81,74012.8,-0.03,-20.93,-26.29,0,*5F
1499140883.46,55194,15.81,74018.3,-0.03,-20.79,-26.29,0,*5C
1499140884.68,55195,15.81,74022.8,-0.01,-20.73,-26.23,0,*5F
1499140885.89,55196,15.81,74022.0,-0.01,-20.73,-26.23,0,*5C
1499140887.11,55197,15.81,74020.0,-0.01,-20.63,-26.23,0,*5C
1499140888.35,55198,15.81,74022.5,-0.01,-20.73,-26.17,0,*55
1499140889.54,55199,15.81,74020.0,-0.03,-20.63,-26.23,0,*50
1499140890.77,55200,15.81,74024.3,-0.01,-20.59,-26.07,0,*5E
1499140892.04,55201,15.81,74016.8,-0.01,-20.49,-26.17,0,*5F
1499140893.28,55202,15.81,74020.3,-0.01,-20.49,-26.07,0,*5D
1499140894.5,55203,15.81,74022.0,0.01,-20.59,-26.17,0,*71
1499140895.75,55204,15.81,74022.3,-0.01,-20.43,-26.17,0,*50
1499140896.97,55205,15.81,74018.0,-0.01,-20.43,-26.07,0,*50
1499140898.22,55206,15.81,74022.0,-0.01,-20.49,-26.07,0,*59
1499140899.46,55207,15.81,74018.8,-0.01,-20.35,-26.07,0,*53
1499140900.68,55208,15.81,74020.3,-0.01,-20.43,-26.07,0,*5D
1499140901.92,55209,15.81,74022.0,-0.01,-20.35,-25.91,0,*51
1499140903.16,55210,15.81,74020.8,-0.01,-20.35,-25.91,0,*59
1499140904.39,55211,15.81,74020.8,-0.01,-20.35,-25.91,0,*58
1499140905.59,55212,15.81,74018.0,0.01,-20.43,-26.03,0,*7F
1499140906.83,55213,15.81,74020.8,-0.01,-20.35,-26.03,0,*52
1499140908.07,55214,15.81,74022.5,-0.01,-20.35,-25.91,0,*5D
1499140909.3,55215,15.81,74014.8,-0.01,-20.35,-25.91,0,*5C
1499140910.48,55216,15.81,74016.0,0.01,-20.29,-26.03,0,*77
1499140911.66,55217,15.81,74018.5,0.01,-20.29,-25.91,0,*7E
1499140912.87,55218,15.81,74016.0,0.01,-20.19,-25.91,0,*72
1499140914.04,55219,15.81,74018.8,0.01,-20.29,-25.91,0,*70
1499140915.22,55220,15.81,74024.3,0.01,-20.29,-25.91,0,*7A
1499140916.42,55221,15.81,74016.8,0.01,-20.19,-25.87,0,*7F
1499140917.63,55222,15.81,74018.3,0.01,-20.19,-25.87,0,*7C
1499140918.83,55223,15.81,74020.0,0.05,-20.09,-25.81,0,*7E
1499140920.04,55224,15.81,74016.3,0.05,-20.09,-25.81,0,*79
1499140921.22,55225,15.81,74014.8,0.05,-20.09,-25.87,0,*7E
1499140922.4,55226,15.81,74010.5,0.05,-20.09,-25.87,0,*7D
1499140923.61,55227,15.81,74022.8,0.05,-20.09,-25.71,0,*75
1499140924.82,55228,15.81,74028.5,0.05,-20.05,-25.71,0,*76
1499140926.03,55229,15.81,74026.3,0.05,-20.05,-25.81,0,*78
1499140927.24,55230,15.81,74016.8,0.05,-20.09,-25.81,0,*7C
1499140928.42,55231,15.81,74016.5,0.05,-20.09,-25.87,0,*7B
1499140929.62,55232,15.81,74020.8,0.05,-20.05,-25.81,0,*72
1499140930.83,55233,15.81,74016.8,0.01,-20.05,-25.81,0,*77
1499140932.03,55234,15.81,74020.5,0.05,-20.05,-25.81,0,*74
1499140933.24,55235,15.81,74020.5,0.05,-20.05,-25.81,0,*75
1499140934.45,55236,15.81,74020.3,0.05,-19.95,-25.81,0,*75
1499140935.68,55237,15.81,74022.8,0.05,-19.95,-25.71,0,*7B
1499140936.9,55238,15.81,74024.0,0.05,-19.95,-25.71,0,*74
1499140938.16,55239,15.81,74024.5,0.07,-19.85,-25.75,0,*72
1499140939.41,55240,15.81,74022.0,0.07,-19.85,-25.65,0,*7D
1499140940.63,55241,15.81,74024.0,0.07,-19.91,-25.65,0,*79
1499140941.85,55242,15.81,74026.3,0.07,-19.75,-25.49,0,*7E
1499140943.07,55243,15.81,74020.0,0.07,-19.75,-25.49,0,*7F
1499140944.3,55244,15.81,74018.8,0.07,-19.75,-25.61,0,*72
1499140945.52,55245,15.81,74016.3,0.07,-19.75,-25.65,0,*77
1499140946.74,55246,15.81,74018.5,0.07,-19.71,-25.65,0,*70
1499140947.97,55247,15.81,74024.3,0.07,-19.71,-25.61,0,*75
1499140949.19,55248,15.81,74026.8,0.09,-19.57,-25.49,0,*7A
1499140950.45,55249,15.88,74026.8,0.07,-19.61,-25.49,0,*70
1499140951.7,55250,15.81,74026.5,0.07,-19.61,-25.61,0,*72
1499140952.92,55251,15.81,74028.3,0.09,-19.57,-25.61,0,*78
1499140954.18,55252,15.81,74028.5,0.07,-19.57,-25.61,0,*75
1499140955.4,55253,15.88,74028.5,0.09,-19.57,-25.49,0,*70
1499140956.65,55254,15.81,74026.5,0.07,-19.57,-25.61,0,*73
1499140957.88,55255,15.81,74028.3,0.09,-19.57,-25.49,0,*76
1499140959.07,55256,15.88,74030.3,0.09,-19.47,-25.61,0,*7E
1499140960.29,55257,15.81,74024.8,0.09,-19.41,-25.49,0,*73
1499140961.51,55258,15.88,74024.0,0.09,-19.41,-25.49,0,*7C
1499140962.73,55259,15.81,74024.5,0.09,-19.31,-25.49,0,*7A
1499140963.96,55260,15.81,74024.0,0.09,-19.31,-25.49,0,*70
1499140965.2,55261,15.88,74024.5,0.09,-19.27,-25.45,0,*7A
1499140966.39,55262,15.88,74026.0,0.09,-19.17,-25.35,0,*7D
1499140967.64,55263,15.81,74026.0,0.09,-19.27,-25.45,0,*78
1499140968.88,55264,15.88,74030.8,0.09,-19.31,-25.45,0,*78
1499140970.09,55265,15.81,74026.5,0.09,-19.17,-25.45,0,*7D
1499140971.34,55266,15.88,74028.8,0.11,-19.23,-25.39,0,*4B
1499140972.57,55267,15.88,74030.5,0.13,-19.07,-25.39,0,*4E
1499140973.8,55268,15.88,74030.8,0.11,-19.13,-25.39,0,*46
1499140975.04,55269,15.88,74026.0,0.13,-19.03,-25.29,0,*45
1499140976.26,55270,15.81,74016.5,0.15,-18.89,-25.23,0,*42
1499140977.52,55271,15.88,74018.0,0.13,-18.93,-25.39,0,*45
1499140978.71,55272,15.88,74022.5,0.15,-18.83,-25.35,0,*4D
1499140979.95,55273,15.88,74016.5,0.11,-18.89,-25.39,0,*4E
1499140981.2,55274,15.81,74010.5,0.11,-18.79,-25.29,0,*47
1499140982.4,55275,15.88,74018.3,0.15,-18.73,-25.23,0,*42
1499140983.6,55276,15.88,74026.3,0.15,-18.69,-25.23,0,*4A
1499140984.8,55277,15.88,74030.0,0.15,-18.69,-25.35,0,*4C
1499140985.99,55278,15.88,74034.3,0.15,-18.73,-25.23,0,*4F
1499140987.19,55279,15.88,74028.0,0.15,-18.73,-25.35,0,*49
1499140988.39,55280,15.88,74028.0,0.15,-18.69,-25.35,0,*44
1499140989.59,55281,15.88,74024.8,0.15,-18.69,-25.23,0,*42
1499140990.79,55282,15.88,74022.5,0.15,-18.69,-25.35,0,*46
1499140992.03,55283,15.81,74016.3,0.17,-18.55,-25.23,0,*4D
1499140993.27,55284,15.88,73998.0,0.17,-18.55,-25.23,0,*4A
1499140994.51,55285,15.88,73992.3,0.17,-18.59,-25.35,0,*40
1499140995.75,55286,15.88,74002.3,0.17,-18.55,-25.39,0,*43
1499140996.99,55287,15.88,74006.0,0.17,-18.55,-25.39,0,*42
1499140998.24,55288,15.88,74010.3,0.17,-18.55,-25.39,0,*4D
1499140999.48,55289,15.88,74016.8,0.17,-18.55,-25.39,0,*4C
1499141000.7,55290,15.88,74016.0,0.17,-18.41,-25.39,0,*41
1499141001.92,55291,15.88,74014.5,0.17,-18.41,-25.39,0,*40
1499141003.15,55292,15.88,74022.0,0.17,-18.41,-25.49,0,*44
1499141004.4,55293,15.88,74020.0,0.19,-18.35,-25.45,0,*44
1499141005.62,55294,15.88,74018.8,0.19,-18.55,-25.65,0,*47
1499141006.83,55295,15.88,74022.5,0.19,-18.41,-25.49,0,*4D
1499141008.08,55296,15.81,74016.8,0.21,-18.41,-25.75,0,*4A
1499141009.3,55297,15.88,74018.3,0.19,-18.49,-25.81,0,*43
1499141010.57,55298,15.88,74008.5,0.21,-18.55,-25.75,0,*41
1499141011.83,55299,15.88,74002.5,0.21,-18.41,-25.75,0,*45
1499141013.06,55300,15.88,74002.0,0.19,-18.41,-25.75,0,*4F
1499141014.31,55301,15.88,74000.5,0.19,-18.35,-25.75,0,*4D
1499141015.56,55302,15.88,74000.5,0.21,-18.41,-25.81,0,*4D
1499141016.75,55303,15.88,73996.0,0.19,-18.49,-25.91,0,*4E
1499141017.98,55304,15.88,73992.3,0.19,-18.41,-25.75,0,*4B
1499141019.2,55305,15.88,73990.8,0.21,-18.11,-25.49,0,*4B
1499141020.41,55306,15.88,73994.0,0.19,-18.07,-25.61,0,*4E
1499141021.61,55307,15.88,73994.3,0.19,-18.21,-25.49,0,*41
1499141022.87,55308,15.88,73992.3,0.21,-17.97,-25.49,0,*47
1499141024.09,55309,15.88,73998.0,0.21,-18.07,-25.61,0,*4A
1499141025.34,55310,15.88,74002.8,0.21,-18.07,-25.75,0,*47
1499141026.6,55311,15.88,74000.0,0.27,-18.01,-25.55,0,*44
1499141027.8,55312,15.88,73998.3,0.23,-18.17,-25.61,0,*43
1499141029.0,55313,15.88,74000.5,0.23,-18.07,-25.61,0,*43
1499141030.23,55314,15.88,74002.5,0.23,-18.17,-25.75,0,*40
1499141031.46,55315,15.88,74006.8,0.27,-18.11,-25.71,0,*47
1499141032.71,55316,15.88,74012.0,0.27,-18.01,-25.55,0,*43
1499141033.96,55317,15.88,74014.5,0.23,-18.01,-25.71,0,*40
1499141035.21,55318,15.88,74018.5,0.27,-18.01,-25.71,0,*4B
1499141036.47,55319,15.88,74022.3,0.27,-18.01,-25.71,0,*4A
1499141037.69,55320,15.88,74020.0,0.23,-18.01,-25.87,0,*4D
1499141038.91,55321,15.88,74022.5,0.27,-17.87,-25.71,0,*40
1499141040.14,55322,15.88,74022.0,0.23,-17.93,-25.87,0,*4B
1499141041.39,55323,15.88,74024.3,0.27,-17.97,-25.81,0,*4C
1499141042.63,55324,15.88,74022.0,0.27,-18.01,-25.81,0,*4B
1499141043.88,55325,15.88,74020.5,0.27,-17.97,-25.81,0,*4A
1499141045.08,55326,15.88,74022.3,0.27,-17.87,-25.87,0,*4E
1499141046.31,55327,15.88,74020.3,0.27,-17.87,-25.71,0,*46
1499141047.52,55328,15.88,74014.5,0.27,-18.01,-25.91,0,*46
1499141048.75,55329,15.88,74014.3,0.27,-18.01,-25.87,0,*40
1499141049.97,55330,15.88,74014.5,0.27,-18.01,-25.87,0,*48
1499141051.19,55331,15.88,74018.0,0.27,-17.97,-25.91,0,*4E
1499141052.43,55332,15.88,74012.3,0.29,-18.01,-25.87,0,*44
1499141053.68,55333,15.88,74016.8,0.29,-18.01,-25.91,0,*42
1499141054.92,55334,15.88,74016.0,0.29,-18.01,-25.87,0,*42
1499141056.16,55335,15.88,74014.5,0.29,-18.01,-25.87,0,*43
1499141057.41,55336,15.88,74016.0,0.29,-17.97,-25.87,0,*40
1499141058.63,55337,15.88,74014.3,0.29,-17.87,-25.91,0,*47
1499141059.84,55338,15.88,74014.3,0.31,-17.93,-25.87,0,*43
1499141061.06,55339,15.88,74014.0,0.29,-17.87,-25.87,0,*4E
1499141062.28,55340,15.88,74018.5,0.31,-17.83,-25.81,0,*4B
1499141063.53,55341,15.88,74018.0,0.29,-17.97,-25.87,0,*40
1499141064.75,55342,15.88,74014.3,0.31,-17.83,-25.81,0,*49
1499141065.97,55343,15.88,74012.0,0.31,-17.93,-25.87,0,*4F
1499141067.19,55344,15.88,74018.0,0.31,-17.83,-25.81,0,*4F
1499141068.44,55345,15.88,74012.5,0.31,-17.93,-25.75,0,*44
1499141069.63,55346,15.88,74012.0,0.31,-17.83,-25.87,0,*4B
1499141070.85,55347,15.88,74012.8,0.31,-17.93,-25.87,0,*4B
1499141072.09,55348,15.88,74014.0,0.35,-17.93,-25.81,0,*46
1499141073.34,55349,15.88,74008.3,0.33,-17.97,-25.87,0,*43
1499141074.58,55350,15.88,74010.0,0.33,-18.07,-25.97,0,*4C
1499141075.8,55351,15.88,74008.0,0.35,-17.93,-25.87,0,*48
1499141077.02,55352,15.88,74012.5,0.35,-17.93,-25.91,0,*4C
1499141078.24,55353,15.88,74016.8,0.33,-18.07,-25.87,0,*4E
1499141079.48,55354,15.88,74008.8,0.33,-18.07,-25.97,0,*48
1499141080.71,55355,15.88,74010.0,0.33,-18.07,-26.03,0,*47
1499141081.95,55356,15.88,74014.5,0.33,-18.07,-25.97,0,*4A
1499141083.17,55357,15.88,74012.3,0.35,-18.01,-25.91,0,*4D
1499141084.42,55358,15.88,74020.5,0.35,-18.01,-25.97,0,*44
1499141085.64,55359,15.88,74024.0,0.35,-18.01,-25.91,0,*43
1499141086.89,55360,15.88,74024.3,0.35,-18.01,-25.81,0,*48
1499141088.13,55361,15.88,74022.8,0.37,-18.17,-25.97,0,*4B
1499141089.36,55362,15.88,74020.0,0.35,-18.17,-25.97,0,*4A
1499141090.57,55363,15.88,74012.3,0.37,-18.17,-26.07,0,*43
1499141091.79,55364,15.88,74014.0,0.37,-18.17,-26.07,0,*44
1499141093.03,55365,15.88,74016.3,0.37,-18.17,-25.97,0,*4F
1499141094.26,55366,15.88,74018.8,0.39,-18.01,-26.03,0,*4B
1499141095.48,55367,15.88,74022.5,0.37,-18.17,-26.07,0,*47
1499141096.72,55368,15.88,74020.8,0.37,-18.31,-26.07,0,*4C
1499141097.92,55369,15.88,74020.0,0.39,-18.25,-26.03,0,*42
1499141099.14,55370,15.88,74020.0,0.37,-18.21,-26.07,0,*44
1499141100.33,55371,15.88,74026.3,0.39,-18.17,-26.03,0,*4A
1499141101.58,55372,15.88,74026.0,0.37,-18.31,-26.07,0,*47
1499141102.78,55373,15.88,74024.3,0.39,-18.25,-26.03,0,*49
1499141104.02,55374,15.88,74022.3,0.37,-18.21,-26.13,0,*45
1499141105.21,55375,15.88,74018.0,0.39,-18.25,-26.07,0,*4B
1499141106.43,55376,15.88,74018.3,0.37,-18.21,-26.07,0,*42
1499141107.68,55377,15.88,74022.3,0.37,-18.21,-25.97,0,*49
1499141108.87,55378,15.88,74022.3,0.39,-18.17,-25.91,0,*4B
1499141110.06,55379,15.88,74022.3,0.39,-18.11,-25.87,0,*4B
1499141111.25,55380,15.88,74024.0,0.39,-18.11,-25.87,0,*4D
1499141112.44,55381,15.88,74022.5,0.39,-18.17,-25.91,0,*4D
1499141113.63,55382,15.88,74022.5,0.39,-18.17,-25.91,0,*4E
1499141114.9,55383,15.88,74024.0,0.41,-17.97,-25.71,0,*49
1499141116.09,55384,15.94,74030.3,0.39,-18.25,-25.87,0,*4E
1499141117.28,55385,15.88,74028.0,0.39,-18.17,-25.87,0,*4E
1499141118.5,55386,15.94,74030.8,0.39,-18.17,-25.75,0,*40
1499141119.74,55387,15.88,74026.5,0.41,-18.11,-25.71,0,*4C
1499141120.96,55388,15.94,74026.3,0.41,-18.11,-25.65,0,*46
1499141122.16,55389,15.88,74020.5,0.43,-18.07,-25.65,0,*42
1499141123.35,55390,15.94,74024.5,0.43,-18.07,-25.65,0,*4A
1499141124.55,55391,15.88,74024.3,0.43,-18.07,-25.65,0,*4B
1499141125.77,55392,15.88,74028.3,0.43,-18.21,-25.71,0,*49
1499141126.96,55393,15.94,74028.5,0.43,-18.07,-25.61,0,*4D
1499141128.16,55394,15.94,74028.5,0.43,-18.07,-25.61,0,*4A
1499141129.39,55395,15.94,74030.0,0.43,-17.97,-25.61,0,*4D
1499141130.61,55396,15.88,74028.8,0.43,-17.97,-25.61,0,*4E
1499141131.86,55397,15.94,74032.5,0.45,-18.01,-25.55,0,*4E
1499141133.11,55398,15.94,74030.0,0.45,-18.01,-25.55,0,*41
1499141134.39,55399,15.94,74030.3,0.47,-17.93,-25.55,0,*46
1499141135.59,55400,15.88,74022.5,0.45,-18.07,-25.61,0,*46
1499141136.81,55401,15.94,74026.5,0.47,-18.07,-25.61,0,*45
1499141138.09,55402,15.88,74016.3,0.47,-18.01,-25.55,0,*47
1499141139.34,55403,15.88,74042.0,0.47,-18.07,-25.55,0,*40
1499141140.58,55404,15.94,74048.5,0.47,-18.07,-25.45,0,*46
1499141141.83,55405,15.94,74034.5,0.47,-18.07,-25.55,0,*46
1499141143.06,55406,15.94,74022.0,0.47,-18.17,-25.61,0,*43
1499141144.28,55407,15.94,74010.0,0.51,-18.11,-25.39,0,*4E
1499141145.46,55408,15.94,74012.8,0.53,-17.87,-25.35,0,*4F
1499141146.68,55409,15.94,74018.8,0.53,-17.97,-25.35,0,*4F
1499141147.93,55410,15.94,74022.3,0.51,-18.01,-25.39,0,*49
1499141149.12,55411,15.94,74012.5,0.53,-18.17,-25.49,0,*4A
1499141150.37,55412,15.94,74016.5,0.51,-18.25,-25.55,0,*47
1499141151.56,55413,15.94,74016.0,0.53,-18.11,-25.49,0,*4E
1499141152.77,55414,15.94,74020.5,0.53,-18.01,-25.35,0,*43
1499141154.02,55415,15.94,74020.3,0.55,-18.07,-25.29,0,*4F
1499141155.26,55416,15.94,74026.0,0.55,-17.97,-25.35,0,*47
1499141156.47,55417,15.94,74024.3,0.55,-18.07,-25.35,0,*40
1499141157.72,55418,15.94,74022.5,0.57,-17.97,-25.29,0,*46
1499141158.93,55419,15.94,74024.5,0.57,-18.07,-25.29,0,*41
1499141160.2,55420,15.94,74020.5,0.55,-18.35,-25.55,0,*43
1499141161.42,55421,15.94,74022.8,0.57,-18.49,-25.71,0,*4D
1499141162.67,55422,15.94,74014.8,0.55,-18.25,-25.55,0,*40
1499141163.9,55423,15.94,74016.0,0.55,-18.25,-25.45,0,*40
1499141165.1,55424,15.94,74016.5,0.57,-18.25,-25.49,0,*49
1499141166.33,55425,15.94,74014.0,0.57,-18.35,-25.45,0,*45
1499141167.54,55426,15.94,74018.0,0.57,-18.25,-25.45,0,*47
1499141168.73,55427,15.94,74018.5,0.57,-18.21,-25.35,0,*45
1499141169.95,55428,15.94,74020.8,0.59,-18.07,-25.13,0,*44
1499141171.16,55429,15.94,74020.5,0.59,-18.17,-25.23,0,*47
1499141172.4,55430,15.94,74024.0,0.59,-18.17,-25.29,0,*45
1499141173.64,55431,15.94,74016.5,0.59,-17.93,-24.97,0,*43
1499141174.88,55432,15.94,74012.8,0.59,-18.01,-24.97,0,*44
1499141176.09,55433,15.94,74014.5,0.63,-17.87,-24.93,0,*49
1499141177.35,55434,15.94,74016.3,0.59,-17.79,-24.83,0,*47
1499141178.57,55435,15.94,74018.8,0.63,-17.83,-24.77,0,*41
1499141179.78,55436,15.94,74022.5,0.63,-17.83,-24.77,0,*42
1499141181.02,55437,15.94,74022.3,0.63,-17.73,-24.71,0,*4A
1499141182.23,55438,15.94,74024.3,0.65,-17.69,-24.67,0,*4F
1499141183.41,55439,15.94,74022.5,0.65,-17.49,-24.35,0,*4B
1499141184.65,55440,15.94,74028.8,0.67,-17.63,-24.51,0,*4D
1499141185.86,55441,15.94,74018.0,0.69,-17.69,-24.67,0,*4D
1499141187.07,55442,15.94,74020.3,0.69,-17.73,-24.67,0,*45
1499141188.28,55443,15.94,74022.0,0.69,-17.63,-24.61,0,*43
1499141189.47,55444,15.94,74022.0,0.69,-17.87,-24.77,0,*49
1499141190.66,55445,15.94,74020.0,0.73,-17.83,-24.61,0,*40
1499141191.85,55446,15.94,74014.5,0.73,-17.87,-24.77,0,*40
1499141193.04,55447,15.94,74020.3,0.77,-17.69,-24.51,0,*41
1499141194.29,55448,15.94,74020.5,0.77,-17.55,-24.41,0,*40
1499141195.52,55449,15.94,74028.0,0.73,-17.59,-24.41,0,*49
1499141196.77,55450,15.94,74024.0,0.77,-17.55,-24.41,0,*49
1499141197.99,55451,15.94,74016.0,0.77,-17.69,-24.41,0,*47
1499141199.27,55452,15.94,74014.5,0.79,-17.55,-24.21,0,*43
1499141200.5,55453,15.94,74016.0,0.79,-17.49,-24.05,0,*49
1499141201.74,55454,15.94,74032.0,0.79,-17.79,-24.35,0,*4E
1499141202.94,55455,15.94,74034.0,0.81,-17.73,-24.31,0,*46
1499141204.16,55456,15.94,74028.3,0.81,-17.49,-24.11,0,*4E
1499141205.41,55457,15.94,74030.0,0.81,-17.59,-24.15,0,*4A
1499141206.66,55458,15.94,74038.0,0.81,-17.45,-23.99,0,*4B
1499141207.92,55459,15.94,74026.0,0.85,-17.41,-23.65,0,*49
1499141209.15,55460,15.94,74024.0,0.85,-17.41,-23.75,0,*42
1499141210.39,55461,15.94,74024.3,0.85,-17.55,-23.95,0,*48
1499141211.66,55462,15.94,74022.3,0.87,-17.59,-24.11,0,*4E
1499141212.91,55463,15.94,74016.5,0.87,-17.69,-24.25,0,*4B
1499141214.14,55464,15.94,74022.8,0.87,-17.49,-24.05,0,*4C
1499141215.39,55465,15.94,74026.0,0.87,-17.55,-24.05,0,*40
1499141216.64,55466,15.94,74022.5,0.89,-17.63,-24.21,0,*4E
1499141217.89,55467,15.94,74024.0,0.91,-17.49,-23.85,0,*47
1499141219.17,55468,15.94,74022.8,0.91,-17.59,-23.99,0,*44
1499141220.43,55469,15.94,74016.3,0.91,-17.63,-24.15,0,*4F
1499141221.69,55470,15.94,74022.8,0.91,-17.49,-23.85,0,*41
1499141222.92,55471,15.94,74020.8,0.91,-17.49,-23.79,0,*43
1499141224.15,55472,15.94,74018.3,0.93,-17.45,-23.79,0,*4E
1499141225.4,55473,16.0,74020.0,0.91,-17.87,-24.15,0,*4E
1499141226.62,55474,15.94,74016.3,0.93,-17.93,-24.31,0,*48
1499141227.87,55475,15.94,74012.5,0.93,-17.79,-24.21,0,*4C
1499141229.12,55476,15.94,74016.5,0.93,-17.79,-23.99,0,*4B
1499141230.37,55477,15.94,74016.0,0.97,-17.41,-23.65,0,*46
1499141231.6,55478,15.94,74016.3,0.97,-17.41,-23.59,0,*46
1499141232.86,55479,15.94,74014.5,0.99,-17.41,-23.59,0,*49
1499141234.14,55480,15.94,74016.3,0.99,-17.45,-23.65,0,*44
1499141235.39,55481,15.94,74014.3,1.01,-17.55,-23.69,0,*78
1499141236.63,55482,16.0,74014.5,0.99,-17.73,-23.95,0,*4C
1499141237.89,55483,15.94,74014.8,1.01,-18.01,-24.21,0,*7F
1499141239.14,55484,15.94,74012.8,1.01,-17.97,-24.11,0,*7B
1499141240.4,55485,15.94,74014.0,1.01,-17.97,-24.21,0,*79
1499141241.63,55486,15.94,74012.5,0.99,-18.07,-24.31,0,*4D
1499141242.86,55487,15.94,74010.3,0.99,-18.17,-24.31,0,*4D
1499141244.11,55488,15.94,74004.5,1.01,-18.01,-24.11,0,*77
1499141245.34,55489,15.94,74008.8,1.01,-17.49,-23.53,0,*74
1499141246.57,55490,15.94,74010.5,1.01,-17.41,-23.39,0,*78
1499141247.8,55491,16.0,74004.8,1.03,-17.35,-23.39,0,*78
1499141249.07,55492,15.94,74000.5,1.03,-17.55,-23.29,0,*7C
1499141250.36,55493,15.94,74006.0,1.03,-17.25,-23.23,0,*70
1499141251.58,55494,15.94,74006.0,1.05,-17.31,-23.19,0,*7D
1499141252.81,55495,15.94,74002.5,1.05,-17.31,-23.19,0,*7C
1499141254.02,55496,16.0,74004.8,1.05,-17.31,-23.09,0,*7E
1499141255.28,55497,15.94,74004.5,1.07,-17.21,-23.09,0,*7C
1499141256.54,55498,16.0,74012.5,1.09,-17.41,-23.13,0,*70
1499141257.78,55499,16.0,74014.3,1.07,-17.35,-23.09,0,*77
1499141259.07,55500,16.0,74004.5,1.09,-17.45,-23.19,0,*7E
1499141260.32,55501,16.0,74014.5,1.09,-17.31,-23.03,0,*77
1499141261.58,55502,15.94,74014.5,1.09,-17.25,-22.97,0,*7D
1499141262.79,55503,16.0,74012.8,1.11,-17.35,-22.93,0,*70
1499141264.02,55504,16.0,74018.5,1.11,-17.11,-22.83,0,*70
1499141265.26,55505,16.0,74016.0,1.11,-17.21,-22.93,0,*73
1499141266.49,55506,16.0,74020.8,1.11,-17.25,-22.83,0,*75
1499141267.75,55507,16.0,74022.5,1.13,-17.21,-22.83,0,*72
1499141269.03,55508,16.0,74022.3,1.13,-17.21,-22.77,0,*76
1499141270.27,55509,16.0,74018.8,1.15,-17.07,-22.67,0,*74
1499141271.48,55510,16.0,74022.3,1.15,-17.31,-22.87,0,*77
1499141272.74,55511,16.0,74020.5,1.13,-17.41,-22.83,0,*73
1499141273.98,55512,16.0,74020.3,1.15,-17.45,-22.87,0,*76
1499141275.23,55513,16.0,74020.5,1.17,-17.59,-22.87,0,*78
1499141276.46,55514,16.0,74024.0,1.17,-17.49,-22.87,0,*7E
1499141277.72,55515,16.0,74020.3,1.17,-17.45,-22.87,0,*73
1499141278.97,55516,16.0,74026.5,1.17,-17.59,-22.87,0,*7D
1499141280.18,55517,16.0,74026.3,1.15,-17.49,-22.87,0,*7F
1499141281.43,55518,16.0,74024.3,1.21,-17.45,-22.83,0,*7F
1499141282.69,55519,16.0,74024.3,1.17,-17.49,-22.73,0,*78
1499141283.94,55520,16.0,74028.5,1.21,-17.41,-22.63,0,*7E
1499141285.2,55521,16.0,74030.3,1.21,-17.59,-22.83,0,*78
1499141286.45,55522,16.0,74026.3,1.17,-17.79,-22.93,0,*7D
1499141287.7,55523,16.0,74028.5,1.17,-17.79,-22.93,0,*7C
1499141288.95,55524,16.0,74026.8,1.21,-17.69,-22.73,0,*71
1499141290.18,55525,16.0,74024.0,1.17,-17.49,-22.57,0,*71
1499141291.41,55526,16.0,74038.3,1.17,-17.49,-22.53,0,*76
1499141292.66,55527,16.0,74028.3,1.21,-17.59,-22.67,0,*74
1499141293.94,55528,16.0,74026.8,1.21,-17.55,-22.47,0,*75
1499141295.19,55529,16.0,74028.5,1.21,-17.59,-22.53,0,*7D
1499141296.44,55530,16.0,74024.8,1.21,-17.55,-22.53,0,*79
1499141297.73,55531,16.0,74024.3,1.21,-17.59,-22.47,0,*71
1499141298.98,55532,16.0,74026.0,1.21,-17.69,-22.47,0,*71